Wind_Speed
22 22 22 22 22 22 21 20 19 18 17 17 17 17 16 16 16 16 17 18 19 21 21 21 20 20 19 18 17 16 15 14 15 15 15 15 15 15 15 15 16 16 16
25 25 25 25 26 25 24 24 23 22 21 20 20 20 20 19 19 19 19 20 21 22 23 24 23 23 22 21 20 19 18 17 17 17 16 16 16 16 16 16 17 17 17
29 29 29 29 29 28 28 28 27 26 25 24 24 23 23 23 23 22 22 22 23 23 24 25 26 26 25 24 23 22 21 21 20 20 19 18 17 17 18 18 18 18 18
35 35 34 33 33 32 32 32 31 30 29 28 27 26 26 26 27 26 26 26 25 25 25 26 27 28 28 28 26 25 24 24 23 23 22 21 20 19 19 19 19 19 18
40 40 40 38 37 36 36 35 34 33 32 31 30 29 29 29 29 29 29 29 28 28 28 27 28 29 30 30 30 29 28 27 26 25 25 24 23 21 21 21 21 20 19
45 45 45 44 42 40 40 38 37 35 35 34 33 32 31 31 32 32 32 32 31 30 30 29 30 30 31 32 32 31 30 30 28 27 27 26 26 24 22 22 22 21 21
49 49 48 48 46 44 43 41 38 38 37 37 37 35 33 33 33 33 34 34 34 33 32 31 31 32 32 32 32 32 32 32 31 30 29 28 28 27 25 24 23 23 22
50 49 49 49 48 47 45 44 42 39 39 39 38 37 34 33 34 34 35 36 36 36 35 34 33 33 34 33 33 33 33 33 33 33 32 31 30 29 28 26 25 25 24
50 50 49 48 46 44 45 44 42 38 38 38 38 37 35 34 35 34 36 37 36 36 36 35 34 34 35 35 34 34 33 33 34 34 34 33 33 32 31 29 28 26 26
50 49 47 47 45 42 40 40 38 37 37 37 36 37 37 37 36 34 34 35 35 35 35 35 34 35 35 36 36 35 34 34 34 35 35 34 34 34 33 32 30 28 27
48 47 44 41 39 38 37 35 34 34 34 35 36 37 37 37 36 34 31 32 33 34 34 34 34 35 35 36 36 36 36 36 36 36 36 35 35 35 35 34 32 31 29
47 45 41 37 36 34 33 31 31 32 33 35 36 37 36 35 34 33 30 29 31 32 33 34 34 35 37 38 38 38 38 36 36 37 37 37 36 36 36 35 34 32 30
45 42 37 34 33 31 30 29 30 31 33 35 35 35 34 33 31 30 29 28 29 31 33 34 35 36 38 39 39 40 40 39 38 37 37 37 37 36 36 35 34 34 32
43 41 38 34 33 31 30 30 31 32 33 33 33 32 32 31 29 29 29 28 28 30 32 34 36 37 38 40 41 41 41 40 40 38 38 38 38 37 37 36 35 34 33
42 39 37 35 33 32 31 31 32 32 31 31 30 30 30 30 29 29 29 28 28 29 30 33 35 37 38 39 41 42 42 43 41 40 39 38 38 37 36 37 36 35 34
40 38 36 36 35 33 32 32 31 31 30 29 29 29 29 29 29 29 29 29 29 29 29 30 31 34 36 38 40 41 41 41 42 41 41 40 39 38 37 37 36 36 35
37 37 36 36 36 34 32 32 31 30 29 29 29 30 30 30 30 31 31 31 32 31 31 30 30 30 31 32 34 36 39 40 39 40 39 39 39 38 38 37 37 36 34
36 35 34 34 33 32 31 31 30 30 30 30 31 31 32 32 33 33 33 34 34 34 34 33 31 30 29 29 29 31 34 36 36 36 37 38 38 37 37 36 37 36 34
32 33 33 31 30 30 30 30 29 29 29 31 32 32 33 34 34 35 35 36 36 37 36 35 34 32 30 28 27 26 27 29 31 33 34 35 36 35 35 35 37 36 34
30 30 30 29 28 28 28 28 28 28 29 30 31 32 33 34 35 36 36 37 38 38 38 37 36 35 32 30 28 25 25 25 26 28 31 33 33 32 33 34 35 35 34
24 24 25 25 25 25 25 26 27 28 28 29 30 31 33 34 35 36 36 37 37 38 38 37 37 36 35 33 31 29 26 25 25 25 26 28 29 30 30 31 32 33 33
18 19 20 21 22 23 24 24 25 26 27 28 29 31 32 33 34 35 36 37 37 37 37 37 36 36 35 34 33 32 29 27 26 25 24 23 24 26 28 28 30 30 33
15 16 17 19 20 21 21 22 23 24 25 26 28 29 31 32 33 34 34 35 35 36 35 36 35 35 35 34 33 33 32 31 29 27 25 22 20 21 24 26 28 31 32
15 15 16 16 17 18 19 21 21 22 23 24 25 26 28 29 30 30 31 32 33 34 34 35 36 35 35 34 33 33 32 32 31 30 29 26 23 21 20 23 25 28 31
14 14 14 14 15 15 15 16 17 18 20 21 22 23 24 25 26 27 28 29 31 32 33 34 35 35 35 34 33 33 32 32 32 31 31 30 26 25 25 24 25 28 30
11 11 11 11 12 12 13 14 15 16 17 18 19 19 21 22 23 24 26 28 29 31 32 33 33 34 34 34 34 33 33 33 32 32 32 32 31 28 28 27 25 27 29
Wind_Direction
281 279 277 272 267 264 261 261 264 271 280 289 296 302 308 310 310 308 303 297 290 283 277 274 274 275 277 278 276 274 273 272 272 276 278 279 278 277 276 275 274 274 274
278 275 274 272 269 266 263 262 264 268 274 280 287 293 298 302 302 302 301 298 294 289 282 275 272 271 271 273 274 273 271 269 267 268 272 276 276 276 276 276 276 275 275
276 273 271 269 267 266 264 263 264 267 271 275 281 286 291 295 297 297 297 295 293 291 286 279 274 270 268 268 270 271 270 267 265 265 268 271 274 275 275 275 275 275 275
275 274 271 268 267 265 264 264 266 267 270 273 277 282 286 289 292 293 293 292 290 288 285 281 276 271 267 265 264 267 268 267 265 264 265 268 271 273 275 274 273 273 274
274 275 272 269 269 267 264 264 265 266 269 272 276 279 283 287 290 291 291 289 287 285 283 280 276 273 268 265 263 263 265 266 265 264 264 265 267 271 274 274 273 273 275
275 275 273 270 270 267 265 264 264 265 267 270 275 278 282 285 287 289 288 288 287 285 282 280 276 273 270 266 264 263 263 264 264 264 263 262 264 268 271 273 273 273 274
276 276 273 271 269 268 266 264 264 264 265 269 274 277 280 283 285 287 287 287 286 284 282 278 275 272 269 267 265 264 263 262 262 262 262 261 261 264 267 269 271 273 274
281 282 276 272 269 266 264 262 263 264 266 268 272 275 278 280 283 285 286 286 285 283 281 278 274 270 267 266 264 264 263 261 259 258 259 259 260 261 264 267 269 272 274
286 284 279 271 267 264 262 260 260 261 263 267 271 275 277 279 282 284 285 285 283 281 279 277 273 268 265 263 262 262 263 262 258 257 257 257 258 259 261 264 267 270 273
284 284 279 270 265 261 259 256 255 258 262 265 270 275 279 282 284 285 284 284 283 280 278 275 272 267 263 261 260 261 261 262 261 258 256 256 256 257 259 262 264 267 271
285 283 279 270 262 256 253 252 254 256 261 265 270 274 279 283 285 286 284 281 281 279 277 275 271 266 262 260 259 260 261 262 263 261 258 257 256 256 257 259 261 264 267
283 281 274 265 257 251 247 249 254 259 263 267 271 275 279 281 283 284 283 280 279 278 276 274 271 266 262 260 259 259 260 262 263 262 260 258 256 255 256 257 259 260 263
281 277 269 259 250 247 248 252 257 262 266 270 273 275 278 279 280 280 280 278 276 276 276 275 272 268 265 264 262 261 261 262 264 262 259 259 257 256 255 256 257 257 259
276 271 265 257 250 248 249 254 260 265 269 272 273 274 275 276 276 276 276 277 276 275 275 275 274 272 269 267 265 263 263 263 262 261 260 258 258 257 256 255 255 254 256
269 266 259 252 247 246 251 257 263 268 270 271 271 271 272 273 273 274 274 275 276 277 276 275 273 274 272 269 266 265 263 262 261 262 261 259 258 257 257 254 254 253 252
261 259 256 253 250 249 252 257 263 267 269 269 269 269 270 271 272 273 273 273 275 277 278 278 276 276 274 272 270 268 266 264 262 260 261 260 258 257 257 255 254 253 251
257 254 253 255 257 255 256 259 263 266 267 267 267 268 269 270 271 271 271 271 272 274 276 277 278 278 277 275 273 270 267 265 263 259 257 257 258 257 257 254 253 252 249
252 249 249 253 255 257 258 261 264 266 266 267 267 268 269 269 270 271 271 270 270 271 273 275 277 278 279 279 279 275 268 264 261 259 257 257 256 255 254 253 252 250 248
243 244 246 249 253 257 260 262 265 266 267 269 269 270 270 270 271 270 270 270 270 270 271 273 274 276 278 281 283 281 275 269 262 259 257 256 254 253 252 251 250 247 244
242 245 246 250 255 258 261 264 267 269 271 271 272 272 272 272 272 271 271 271 270 270 271 271 272 274 275 277 280 281 279 273 266 261 257 254 252 252 250 249 246 243 239
247 249 252 255 258 262 266 270 272 274 274 274 274 273 273 272 272 272 271 271 270 271 271 271 271 272 273 274 275 275 274 274 271 265 260 254 249 247 244 243 241 239 234
257 260 263 265 268 270 273 274 275 276 276 275 275 274 274 273 273 273 272 272 272 272 273 273 273 272 272 272 272 272 271 271 271 268 263 257 252 245 241 239 236 232 227
275 276 277 278 278 279 278 277 277 276 275 275 275 275 275 276 276 275 275 275 275 275 275 275 275 275 273 272 272 271 270 269 269 268 264 260 257 250 240 236 235 230 225
282 281 281 279 278 278 278 277 275 275 275 276 277 279 279 280 279 279 279 279 279 278 277 277 277 277 276 274 272 271 270 269 267 267 265 263 261 258 248 241 235 232 230
279 279 278 278 278 278 276 276 276 277 278 280 281 282 284 285 285 285 283 282 282 281 279 278 278 278 278 277 275 272 270 269 267 265 263 263 261 257 254 253 245 236 232
274 274 272 271 272 272 273 275 277 280 283 285 287 288 289 290 289 289 288 286 285 283 282 280 279 277 276 276 275 273 271 269 268 265 262 260 258 257 254 255 251 242 236
Height
5906 5905 5904 5903 5902 5901 5900 5899 5898 5897 5896 5895 5893 5891 5890 5888 5887 5885 5883 5882 5880 5879 5879 5878 5878 5877 5877 5877 5876 5876 5875 5875 5875 5875 5875 5875 5874 5874 5873 5873 5873 5873 5872
5901 5900 5899 5898 5897 5896 5894 5893 5893 5892 5891 5890 5889 5887 5885 5884 5882 5881 5879 5878 5876 5875 5874 5873 5873 5872 5872 5873 5872 5872 5872 5871 5871 5871 5871 5871 5871 5870 5870 5870 5869 5869 5869
5894 5893 5893 5892 5891 5890 5889 5888 5887 5886 5885 5884 5883 5882 5880 5879 5877 5875 5874 5873 5871 5870 5869 5868 5867 5867 5867 5867 5868 5868 5867 5867 5867 5867 5866 5866 5866 5866 5866 5866 5865 5865 5865
5886 5885 5885 5884 5884 5883 5883 5882 5881 5880 5879 5878 5877 5876 5874 5873 5871 5870 5868 5867 5865 5864 5863 5862 5862 5861 5861 5861 5862 5862 5862 5862 5862 5861 5861 5861 5861 5861 5861 5861 5861 5861 5861
5877 5876 5875 5875 5875 5875 5875 5874 5873 5873 5872 5871 5870 5869 5868 5866 5865 5863 5861 5860 5859 5858 5857 5856 5855 5855 5855 5855 5855 5855 5856 5856 5856 5856 5856 5856 5856 5856 5856 5856 5856 5856 5856
5868 5866 5865 5864 5864 5865 5865 5865 5865 5864 5864 5863 5863 5862 5861 5859 5858 5856 5854 5853 5851 5850 5850 5849 5849 5848 5848 5848 5848 5848 5849 5849 5849 5850 5850 5850 5850 5850 5851 5851 5851 5851 5851
5858 5856 5854 5854 5853 5854 5855 5855 5856 5856 5855 5855 5855 5854 5853 5852 5850 5848 5846 5845 5844 5843 5842 5841 5841 5840 5840 5840 5841 5841 5841 5842 5842 5843 5843 5843 5844 5844 5844 5845 5845 5845 5845
5847 5845 5844 5843 5842 5843 5844 5845 5847 5846 5846 5846 5845 5845 5846 5845 5842 5841 5838 5836 5835 5834 5833 5832 5832 5832 5832 5832 5833 5833 5833 5834 5835 5835 5836 5836 5837 5837 5838 5838 5838 5839 5839
5836 5834 5831 5831 5831 5831 5834 5835 5837 5837 5837 5837 5836 5835 5836 5836 5833 5833 5830 5827 5826 5825 5824 5824 5823 5823 5823 5824 5825 5825 5825 5826 5826 5827 5827 5828 5829 5829 5830 5831 5831 5832 5832
5825 5822 5820 5819 5820 5821 5823 5825 5827 5828 5829 5829 5828 5826 5826 5825 5824 5823 5822 5818 5816 5815 5814 5814 5814 5814 5814 5815 5816 5817 5817 5817 5818 5818 5819 5819 5820 5821 5822 5823 5824 5824 5825
5814 5811 5809 5807 5808 5811 5813 5816 5817 5818 5819 5819 5819 5818 5817 5815 5813 5813 5813 5810 5807 5806 5805 5805 5804 5804 5805 5806 5807 5808 5808 5809 5809 5809 5810 5810 5811 5812 5813 5815 5816 5817 5817
5803 5801 5799 5798 5799 5802 5804 5807 5809 5810 5810 5810 5810 5809 5808 5807 5805 5803 5803 5802 5799 5798 5797 5796 5795 5795 5795 5796 5797 5798 5799 5799 5799 5800 5800 5801 5802 5803 5804 5806 5807 5808 5809
5793 5791 5790 5791 5792 5794 5796 5798 5800 5801 5801 5801 5800 5799 5798 5798 5796 5795 5794 5794 5792 5791 5789 5787 5787 5786 5786 5786 5786 5787 5788 5789 5789 5790 5790 5791 5792 5793 5795 5796 5798 5799 5801
5781 5781 5782 5782 5784 5786 5788 5790 5791 5792 5792 5791 5791 5790 5790 5789 5788 5787 5786 5786 5785 5783 5781 5780 5778 5777 5777 5777 5777 5777 5778 5778 5779 5779 5780 5781 5782 5783 5785 5787 5788 5790 5792
5770 5771 5772 5773 5775 5777 5779 5781 5782 5783 5782 5782 5782 5782 5781 5781 5780 5779 5779 5778 5778 5776 5774 5772 5770 5769 5768 5767 5767 5767 5767 5767 5768 5769 5770 5771 5772 5774 5775 5777 5779 5780 5783
5758 5761 5762 5764 5765 5767 5770 5772 5773 5774 5774 5773 5774 5774 5773 5772 5772 5771 5771 5770 5769 5768 5766 5764 5762 5760 5759 5757 5756 5756 5756 5756 5757 5758 5760 5761 5762 5764 5765 5767 5769 5771 5773
5748 5751 5753 5755 5757 5759 5761 5763 5764 5765 5765 5765 5765 5765 5764 5764 5763 5763 5762 5762 5761 5760 5758 5757 5754 5752 5750 5748 5747 5745 5745 5746 5746 5747 5748 5750 5751 5753 5755 5757 5759 5761 5764
5739 5741 5744 5746 5748 5750 5752 5754 5755 5755 5756 5756 5756 5756 5755 5755 5754 5754 5753 5753 5752 5751 5750 5748 5746 5744 5742 5739 5738 5736 5735 5735 5736 5737 5738 5739 5741 5743 5745 5747 5750 5752 5755
5730 5733 5735 5737 5739 5742 5744 5745 5746 5746 5747 5747 5747 5746 5746 5746 5745 5745 5744 5744 5743 5742 5741 5740 5738 5736 5734 5732 5730 5728 5727 5726 5726 5727 5728 5729 5731 5733 5735 5738 5740 5743 5746
5723 5725 5727 5729 5731 5733 5735 5736 5737 5738 5738 5738 5738 5737 5737 5737 5736 5736 5735 5734 5734 5733 5732 5731 5729 5728 5727 5725 5724 5722 5720 5719 5718 5718 5719 5720 5721 5723 5726 5728 5731 5734 5737
5717 5718 5720 5722 5724 5726 5727 5728 5729 5729 5729 5729 5729 5729 5728 5728 5727 5726 5726 5725 5724 5723 5722 5721 5720 5719 5719 5718 5717 5715 5714 5713 5712 5711 5711 5712 5713 5715 5717 5719 5722 5725 5728
5712 5713 5715 5716 5718 5719 5720 5720 5721 5721 5721 5721 5721 5720 5720 5719 5718 5718 5717 5716 5715 5714 5713 5712 5711 5710 5709 5709 5708 5708 5707 5706 5705 5705 5705 5705 5706 5707 5709 5711 5714 5717 5720
5708 5708 5710 5711 5712 5713 5713 5713 5714 5714 5714 5713 5713 5713 5712 5711 5710 5709 5708 5707 5706 5704 5703 5702 5701 5701 5700 5700 5700 5699 5699 5698 5698 5698 5698 5698 5699 5700 5701 5703 5706 5709 5712
5703 5704 5705 5706 5706 5707 5707 5707 5707 5707 5707 5707 5706 5705 5705 5703 5702 5701 5699 5698 5697 5695 5694 5693 5692 5691 5691 5690 5690 5690 5690 5690 5690 5690 5691 5691 5692 5693 5694 5696 5699 5702 5705
5700 5700 5701 5701 5701 5701 5702 5702 5702 5702 5701 5701 5700 5699 5698 5697 5695 5694 5692 5690 5689 5687 5685 5684 5682 5681 5681 5680 5680 5681 5681 5681 5682 5682 5683 5684 5685 5687 5688 5689 5691 5694 5697
5696 5696 5697 5697 5697 5697 5698 5698 5698 5697 5697 5696 5695 5694 5692 5691 5689 5687 5685 5683 5681 5679 5677 5675 5674 5672 5672 5671 5671 5671 5671 5672 5672 5674 5675 5676 5678 5680 5681 5683 5684 5686 5689